Regional Weather Roundup
Issued by NWS Sterling, VA

Home | Current Version | Previous Version | Text Only | Print | Product List | Glossary Off
Versions: 1 2 3 4 5 6 7 8 9 10 11 12 13 14 15 16 17 18 19 20 21 22 23 24 25 26 27 28 29 30 31 32 33 34 35 36 37 38 39 40 41 42 43 44 45 46 47 48 49

000
ASUS41 KLWX 290610
RWRLWX

REGIONAL WEATHER ROUNDUP
NATIONAL WEATHER SERVICE BALTIMORE MD/WASHINGTON DC
200 AM EDT WED JUL 29 2015

Note: "FAIR" indicates few or no clouds below 12,000 feet
with no significant weather and/or obstructions to visibility.
 TC=TEMPERATURE CELSIUS

 * =Non NWS site. Station does not report precipitation (e.g. rain,
    snow, etc.), thunder, or fog.

DCZ001-MDZ009-015-VAZ040>042-051-053>054-290700-
WASHINGTON METRO

CITY           SKY/WX    TMP DP  RH WIND       PRES   REMARKS
WASHINGTON NAT PTCLDY    79  74  84 SE5       30.00F
DULLES         CLEAR     72  71  97 CALM      30.00S
QUANTICO       CLEAR     75  72  90 NW7       30.00S
COLLEGE PARK*  CLEAR     73  73 100 CALM      29.99F
LEESBURG*      CLEAR     73  73 100 S5        30.02S
MANASSAS*      CLEAR     73  73 100 CALM      30.00S
GAITHERSBURG*  CLEAR     70  66  88 CALM      30.05F

$$

MDZ006>007-011-014-290700-
BALTIMORE METRO

CITY           SKY/WX    TMP DP  RH WIND       PRES   REMARKS
BWI AIRPORT    PTCLDY    73  70  90 CALM      29.99F
MD SCIENCE CTR   N/A     78  71  79 MISG      30.00S
MARTIN STATE   CLEAR     77  73  88 CALM      30.01S
ANNAPOLIS      CLEAR     77  72  84 CALM      29.98F
FORT MEADE*    CLEAR     68  68 100 CALM      30.03S

$$

MDZ012-015-019>023-290700-
MARYLAND EASTERN SHORE

CITY           SKY/WX    TMP DP  RH WIND       PRES   REMARKS
OCEAN CITY     CLEAR     71  69  93 SW5       30.00S
SALISBURY      CLEAR     70  69  97 SW3       30.00S
BAY BRIDGE AP*   N/A     75  73  94 E3        29.99F
CAMBRIDGE*     CLEAR     73  72  94 CALM      29.99F
EASTON*        CLEAR     76  76 100 CALM      30.03F

$$

MDZ017>025-290700-
SOUTHERN MARYLAND

CITY           SKY/WX    TMP DP  RH WIND       PRES   REMARKS
PATUXENT RIVER CLEAR     73  71  93 CALM      29.99F
ST INIGOES     CLEAR     73  72  96 CALM      29.99S FOG
LEONARDTOWN*   CLEAR     72  70  94 CALM      30.01F

$$

MDZ003>005-290700-
NORTH CENTRAL MARYLAND

CITY           SKY/WX    TMP DP  RH WIND       PRES   REMARKS
FREDERICK*     CLEAR     70  70 100 CALM      30.04S
HAGERSTOWN APT CLEAR     77  69  76 CALM      30.02S
WESTMINSTER*   CLEAR     72  72 100 CALM      30.03S

$$

MDZ501>502-290700-
WESTERN MARYLAND

CITY           SKY/WX    TMP DP  RH WIND       PRES   REMARKS
OAKLAND*       PTCLDY    66 N/A N/A SE7       30.11F
CUMBERLAND*    PTCLDY    72  72 100 CALM      30.05S

$$

VAZ025>031-290700-
SHENANDOAH VALLEY

CITY           SKY/WX    TMP DP  RH WIND       PRES   REMARKS
WINCHESTER*    CLEAR     72  70  94 CALM      30.01S
FRONT ROYAL*   FAIR      70  70 100 CALM      30.00S
LURAY*         FAIR      72  72 100 CALM      30.02S
NEW MARKET*    FAIR      69  69 100 CALM      30.01R
STAUNTON*      PTCLDY    74  71  91 CALM      30.05S
WAYNESBORO*    MOCLDY    71  71 100 N3        30.05R

$$

WVZ021-048>050-054>055-290700-
EASTERN WEST VIRGINIA PANHANDLE

CITY           SKY/WX    TMP DP  RH WIND       PRES   REMARKS
MARTINSBURG    CLEAR     70  68  93 CALM      30.01S
PETERSBURG*    CLOUDY   N/A N/A N/A CALM      30.03F FOG

$$

VAZ036>039-050-290700-
CENTRAL FOOTHILLS

CITY           SKY/WX    TMP DP  RH WIND       PRES   REMARKS
CHARLOTTESVILL PTCLDY    73  71  93 CALM      30.01S
CULPEPER*      FOG       70  70 100 CALM      30.01S VSB 1/2
ORANGE*        CLOUDY    73  72  94 CALM      30.02S
GORDONSVILLE*  FOG       72  72 100 CALM      30.01R VSB 1
WARRENTON*     FAIR      70  70 100 CALM      30.00S FOG

$$

VAZ055>057-290700-
NORTH AND CENTRAL PIEDMONT

CITY           SKY/WX    TMP DP  RH WIND       PRES   REMARKS
FREDERICKSBRG* FOG       76  76 100 CALM      29.99S VSB 1/4
STAFFORD*      MOCLDY    69  68  96 NW3       30.04S

$$

NCZ024-NYZ072-PAZ021-071-VAZ022-071-290700-
OTHER REGIONAL OBSERVATIONS

CITY           SKY/WX    TMP DP  RH WIND       PRES   REMARKS
NEW YORK CITY  CLEAR     80  69  69 CALM      30.00F
PHILADELPHIA   PTCLDY    79  74  84 SW3       29.99F
PITTSBURGH     PTCLDY    76  66  71 CALM      30.02S
ROANOKE        CLOUDY    74  73  97 SE6       30.05S
RICHMOND       PTCLDY    76  74  93 CALM      30.00R
RALEIGH        MOCLDY    78  71  79 S3        30.01F

$$

ANZ530>537-290700-
MARINE OBSERVATIONS

STATION/POSITION TIME  TEMP    WIND        PRES
                       AIR SEA DIR/SP/G
                 (UTC) (F)     (DEG/KT/KT) (MB)
THOMAS PT LIGHT  NOT AVBL
BALT KEY BRIDGE  0500   78     210/  3/  3 1015.7F
COVE POINT       0500   79     250/  3/  3 1016.6F
LEWISETTA        0500   79 83  180/  3/  3 1015.3F
SOLOMONS ISLAND  0500      83                N/A

$$




USA.gov is the U.S. government's official web portal to all federal, state and local government web resources and services.